Location: Mohawk View
(42.7837°N, 73.7885°W)
Time: 01:41:17
(UTC+00:00)

Cosmos 1980 Rocket - Pass Details

Date: 17 June 2021
Orbit: 830 x 849 km, 71.0° (Epoch: 02 August)

Event Time Altitude Azimuth Distance (km) Brightness Sun altitude
Rises 01:21:23 0° 226° (SW) 3,381 5.4 -7.4°
Reaches altitude 10° 01:24:00 10° 234° (SW) 2,448 4.8 -7.8°
Maximum altitude 01:29:12 38° 303° (WNW) 1,253 3.9 -8.5°
Drops below altitude 10° 01:34:25 10° 11° (N) 2,450 5.1 -9.2°
Sets 01:37:03 0° 19° (NNE) 3,386 5.7 -9.5°
